DELTA 1 R/B, 50

Orbit data source: Space-Track

DELTA 1 R/B, 50 is space debris in LEO originally from a launch on Fri, 12 Aug 1960 UTC launched from the Air Force Eastern Test Range (AFETR). Debris objects in space refer to the collection of defunct objects orbiting the Earth. Examples of debris include non-operational satellites, rocket bodies, and fragments generated from explosions, collisions, or faulty payload assembly.

Loading next visibility...
Identifier
50, 1960-009B
Orbit
LEO
Country
Flag of USUS
Related business
Manufacturer
ABL
Mission
Spacecraft
Bus & Motor
ALTAIR, Unknown motor
Mass
24 kg wet, 24 kg dry
Launch date (UTC)
1960-08-12 (65 years ago)
Launch vehicle
Unknown
Launch site
Air Force Eastern Test Range (AFETR)
Object type
Payload
Rocket body
Debris
Shape & HBR
Unknown
Radar Cross Section
Medium (>0.1 m² and <1 m²)

Expand to show TLE details & history
Last TLE update: 14 hours ago

TLE from 14 hours ago
0 DELTA 1 R/B
1    50U 60009B   25312.48053793 -.00000089  00000-0 -20819-4 0  9995
2    50  47.2278 126.7863 0113885  77.2311 284.1178 12.20161331910750
Epoch: 2025-11-08T11:31Z
TLE epoch observation values (Epoch: 2025-11-08T11:31:58.477Z)
Latitude
-0.00002°
Longitude
-94.11691°
Altitude
1,570.89 km
Speed
7.093 km/s
True Right ascension
08h 27m 08s
True Declination
0° 00' 00"
Sunlit
Object was in daylight at epoch
Visualization orbit readout
Latitude
Unknown
Longitude
Unknown
Altitude
Unknown
Speed
Unknown
Apparent Right ascension
Unknown
Apparent Declination
Unknown
Sunlit
N/A
Visualization observer readout
Local Sidereal Time
22:05:26
Azimuth
Unknown
Elevation
Unknown
Doppler factor
Unknown
Orbital elements
Apogee altitude
1,683.682 km
Perigee altitude
1,502.125 km
Semi-major axis
7,971.041 km
Eccentricity
0.01139
Inclination
47.2278°
RAAN
126.7863°
Arg. of periapsis
77.2311°
True anomaly
282.84789°
Mean anomaly
284.1178°
Eccentric anomaly
283.48327°
Mean motion
3.04979 °/min
Orbital period
118.04 mins
BSTAR
-0.000020819
Loading maneuver chart data...
Computing Atmospheric mass density...
Loading historical data...
Loading historical data...
Loading historical data...
Loading historical data...
Loading historical data...
Loading historical data...
Loading historical data...

Documentation

Showing up to 5 results
|